Weather History for Basrah, Iraq

Change the Weather History Date:

Monday, June 14, 2010

  Actual Average Record
Temperature  
Mean Temperature 98 °F -  
Max Temperature 125 °F - - ()
Min Temperature 70 °F - - ()
Cooling Degree Days 32    
Growing Degree Days 48 (Base 50)    
Moisture  
Dew Point 40 °F    
Average Humidity 10    
Maximum Humidity 27    
Minimum Humidity 4    
Precipitation  
Precipitation 0.00 in - - ()
Sea Level Pressure  
Sea Level Pressure 29.51 in    
Wind  
Wind Speed 10 mph ()    
Max Wind Speed 21 mph    
Max Gust Speed -    
Visibility 6.0 miles    
Events      
T = Trace of Precipitation, MM = Missing Value Source: Averaged Metar Reports

Daily Weather History Graph

Daily Weather History Graph

Search for Another Location

Airport:

Trip Planner

Search our weather history database for the weather conditions in past years. The results will help you decide how hot, cold, wet, or windy it might be!

Date:

Astronomy

Jun. 14, 2010 Rise Set
Actual Time 4:45 AM AST 6:52 PM AST
Civil Twilight 4:18 AM AST 7:19 PM AST
Nautical Twilight 3:44 AM AST 7:53 PM AST
Astronomical Twilight 3:08 AM AST 8:29 PM AST
Moon 6:31 AM AST (6/14) 8:49 PM AST (6/14)
Length of Visible Light 15h 01m
Length of Day
14h 06m
Waxing Crescent, 5% of the Moon is Illuminated
Jun 14
Waxing Crescent
Jun 19
First Quarter
Jun 26
Full
Jul 4
Last Quarter
Jul 11
New

Hourly Weather History & Observations

Time (AST) Temp. Dew Point Humidity Pressure Visibility Wind Dir Wind Speed Gust Speed Precip Events Conditions
12:00 AM 96.8 °F 46.4 °F 18% 29.53 in - NW 12.7 mph - N/A   Clear
3:00 AM 98 °F 50 °F 12% 29.52 in 6 mi WNW 8.9 mph - -  
6:00 AM 95 °F 49 °F 12% 29.55 in 6 mi WNW 8.9 mph - -  
6:00 AM 86.0 °F 48.2 °F 27% 29.53 in - NNW 2.3 mph - N/A   Clear
7:00 AM 96.8 °F 39.2 °F 14% 29.53 in - NNW 6.9 mph - N/A   Clear
9:00 AM 104 °F 38 °F 5% 29.57 in 6 mi WNW 3.5 mph - -  
9:00 AM 105.8 °F 35.6 °F 9% 29.56 in - West 11.5 mph - N/A   Clear
11:00 AM 116.6 °F 33.8 °F 6% 29.56 in - NNW 10.4 mph - N/A   Clear
12:00 PM 121 °F 31 °F 4% 29.54 in 6 mi NNW 6.9 mph - -  
12:00 PM 120.2 °F 32.0 °F 5% 29.53 in - NW 9.2 mph - N/A   Clear
1:00 PM 123.8 °F 30.2 °F 4% 29.53 in - NW 13.8 mph - N/A   Clear
2:00 PM 125.6 °F 32.0 °F 4% 29.50 in - NW 20.7 mph - N/A   Clear
3:00 PM 70 °F 23 °F 8% 29.49 in 6 mi NNW 11.2 mph - -  
3:00 PM 123.8 °F 33.8 °F 5% 29.50 in - NNW 9.2 mph - N/A   Clear
4:00 PM 123.8 °F 32.0 °F 5% 29.47 in - NW 18.4 mph - N/A   Clear
5:00 PM 120.2 °F 37.4 °F 6% 29.47 in - NW 16.1 mph - N/A   Clear
6:00 PM 121 °F 36 °F 4% 29.47 in 6 mi North 13.4 mph - -  
6:00 PM 118.4 °F 42.8 °F 8% 29.47 in - NW 16.1 mph - N/A   Clear
7:00 PM 111.2 °F 44.6 °F 11% 29.47 in - WNW 11.5 mph - N/A   Clear
8:00 PM 107.6 °F 48.2 °F 14% 29.47 in - West 16.1 mph - N/A   Clear
9:00 PM 108 °F 45 °F 6% 29.49 in 6 mi NNW 5.8 mph - -  
9:00 PM 105.8 °F 48.2 °F 14% 29.47 in - West 16.1 mph - N/A   Clear
10:00 PM 102.2 °F 48.2 °F 16% 29.50 in - WNW 13.8 mph - N/A   Clear
11:00 PM 102.2 °F 50.0 °F 17% 29.50 in - WNW 11.5 mph - N/A   Clear